Tracking 20710 objects as of 30-May-2020
HD Live streaming from Space Station
objects crossing your sky now

FENGYUN 1C DEB

Track FENGYUN 1C DEB now!
10-day predictions


NORAD ID: 32357
Int'l Code: 1999-025CZA
Perigee: 663.5 km
Apogee: 1,514.2 km
Inclination: 98.8 °
Period: 106.9 minutes
Semi major axis: 7459 km
RCS: 0.0112 m2 (small)
Launch date: May 10, 1999
Source: People's Republic of China (PRC)
Launch site: Taiyaun Space Center, China (TSC)

Note: This is SATELLITE DEBRIS
aabbcc
Your satellite tracking list
Your tracking list is empty




NASA's NSSDC Master Catalog

Two Line Element Set (TLE):
1 32357U 99025CZA 20150.83048080  .00000375  00000-0  24823-3 0  9991
2 32357  98.8483 356.6465 0570203   8.7737   3.6261 13.47428254634805
Source of the keplerian elements: AFSPC